Showing default

GEESAT 4-03, 65121

Orbit data source: Space-Track

GEESAT 4-03, 65121 is a payload satellite owned by GeeSpace (CN) in LEO that was launched on Fri, 08 Aug 2025 UTC via a JIELONG-3 launch vehicle from the Yellow Sea Launch Area, China (YSLA). Payload-class satellites include a variety of spacecraft equipped with specific instruments for various scientific and technological missions. These include communications satellites like Starlink; space stations such as the ISS; scientific satellites like the Hubble; Earth observation satellites from companies like Planet Labs, Umbra, and HawkEye 360; GPS; miniature CubeSats for education and research; and military/defense satellites.

Loading next visibility...
Identifier
65121, 2025-170C
Orbit
LEO
Country
Flag of CNCN / PRC
Related business
Manufacturer
GWCG
Mission
Operational Commercial Navigation
Bus & Motor
GPS100, Unknown motor
Mass
130 kg wet, 130 kg dry
Launch date (UTC)
2025-08-08 (6 months ago)
Launch vehicle
JIELONG-3
Launch site
Yellow Sea Launch Area, China (YSLA)
Object type
Payload
Rocket body
Debris
Shape & HBR
Box + 2 Pan, 1.0 m
Radar Cross Section
0.833 m², Medium (>0.1 m² and < 1m²)

Expand to show TLE details & history
Last TLE update: 15 hours ago

TLE from 15 hours ago
0 GEESAT 4-03
1 65121U 25170C   26034.63992591  .00003035  00000-0  38894-3 0  9995
2 65121  49.9921  73.2193 0021749 271.8279  88.0169 14.83744169 26608
Epoch: 2026-02-03T15:21Z
TLE epoch observation values (Epoch: 2026-02-03T15:21:29.598Z)
Latitude
0.00003°
Longitude
69.02803°
Altitude
617.58 km
Speed
7.552 km/s
True Right ascension
04h 52m 52s
True Declination
0° 00' 00"
Sunlit
Object was in full shadow at epoch
Visualization orbit readout
Latitude
Unknown
Longitude
Unknown
Altitude
Unknown
Speed
Unknown
Apparent Right ascension
Unknown
Apparent Declination
Unknown
Sunlit
N/A
Visualization observer readout
Local Sidereal Time
08:36:00
Azimuth
Unknown
Elevation
Unknown
Doppler factor
Unknown
Orbital elements
Apogee altitude
633.507 km
Perigee altitude
603.074 km
Semi-major axis
6,996.427 km
Eccentricity
0.00217
Inclination
49.9921°
RAAN
73.2193°
Arg. of periapsis
271.8279°
True anomaly
88.266°
Mean anomaly
88.0169°
Eccentric anomaly
88.14145°
Mean motion
3.70876 °/min
Orbital period
97.07 mins
BSTAR
0.00038894
Loading maneuver chart data...
Computing Atmospheric mass density...
Loading historical data...
Loading historical data...
Loading historical data...
Loading historical data...
Loading historical data...
Loading historical data...
Loading historical data...

Documentation

Showing up to 5 results
|